Wind_Speed
16 16 16 16 16 15 14 13 12 11 11 9 9 8 9 10 9 11 12 15 14 11 12 11 12 14 12 9 8 8 8 5 9 12 15 13 16 19 19 18 14 14 14 15 16
19 19 19 18 19 19 19 18 17 16 14 12 11 11 10 10 10 11 12 14 16 14 12 16 15 16 14 11 9 10 11 8 7 15 17 17 15 17 17 16 17 18 18 18 15
19 19 19 18 19 19 19 20 19 19 18 18 17 14 14 13 10 9 13 16 13 16 14 13 13 12 13 13 12 10 11 6 9 13 12 17 20 18 15 15 13 14 16 19 17
17 18 17 16 16 18 18 18 19 19 18 19 19 20 19 17 15 12 12 14 14 14 19 17 16 16 16 15 14 15 15 9 6 16 8 15 21 18 14 14 13 15 15 15 18
14 15 15 15 14 15 16 16 17 16 15 16 19 19 21 21 20 16 15 14 14 16 18 23 21 21 21 20 18 17 17 16 6 13 10 10 17 14 14 13 14 16 17 16 17
16 17 17 17 17 16 17 16 16 16 15 14 15 16 18 20 21 22 20 19 16 15 19 22 26 24 24 24 21 19 16 16 13 13 12 9 13 14 16 17 16 15 15 17 17
19 18 18 18 18 19 19 19 18 18 18 18 18 17 17 17 18 19 23 24 21 19 18 23 24 26 24 26 24 20 17 17 15 17 13 12 12 13 15 16 16 15 16 17 19
22 21 21 20 21 20 21 21 21 21 21 21 21 21 22 20 20 19 19 23 24 24 23 21 24 26 28 24 24 20 19 16 20 21 17 12 11 10 13 16 16 17 18 19 21
26 27 26 25 24 25 24 23 22 22 24 25 24 23 23 24 24 24 22 22 23 25 26 25 23 25 26 28 29 21 18 20 18 18 19 16 14 11 14 17 19 20 20 20 17
30 30 28 27 28 27 26 26 25 24 25 26 26 27 29 28 27 28 29 27 25 26 26 29 27 23 26 25 27 25 24 23 24 23 22 20 15 14 15 19 20 21 19 18 19
32 33 31 30 30 32 32 34 32 30 30 30 29 28 29 30 31 32 32 32 33 30 30 28 29 24 24 26 29 31 31 28 28 30 29 24 18 20 19 20 21 20 21 19 19
33 35 35 34 33 33 34 36 38 37 34 34 34 32 31 31 34 37 38 38 37 37 35 34 28 29 33 31 33 30 32 32 36 33 32 30 25 27 22 24 25 22 22 19 16
28 29 30 31 32 33 31 31 32 31 31 32 32 33 33 35 36 37 40 43 44 44 41 39 35 35 34 35 35 35 33 38 38 40 35 34 32 33 30 28 25 23 22 19 18
33 32 32 32 33 32 33 32 31 30 31 32 32 32 32 34 37 38 40 41 44 46 47 48 43 42 38 40 40 38 34 39 43 42 38 37 35 35 35 32 30 29 25 23 19
31 31 29 31 32 32 32 30 30 32 31 34 33 29 33 35 38 40 41 41 42 45 49 51 48 48 45 42 45 39 41 44 45 44 44 48 45 37 37 39 37 32 29 26 22
35 31 32 33 32 32 30 29 28 29 34 30 31 29 30 33 37 40 41 43 43 45 46 50 53 55 53 50 49 45 48 44 46 50 55 52 49 48 33 44 39 36 33 30 25
33 32 32 33 30 30 29 26 27 29 28 29 28 26 28 29 32 33 35 38 40 42 44 47 51 56 59 58 55 52 53 50 52 56 59 52 56 53 41 39 40 40 36 34 31
31 30 25 25 26 27 23 21 23 28 27 28 27 28 30 29 29 29 30 33 34 35 39 44 45 51 59 61 60 58 57 57 56 56 57 53 60 55 55 48 46 48 42 42 37
24 23 24 24 22 19 19 21 22 22 23 26 30 31 34 36 37 36 36 38 37 37 39 43 40 47 55 62 63 61 64 56 48 48 51 48 56 57 54 52 50 47 46 45 41
20 21 22 16 11 9 10 15 18 22 26 31 34 37 38 41 38 41 43 42 43 44 43 45 42 46 50 52 60 62 58 61 62 57 63 46 51 52 57 46 53 57 52 47 42
17 12 7 5 8 13 17 20 25 28 30 32 33 37 38 43 46 47 49 52 50 50 50 50 50 49 49 49 53 63 65 53 57 67 65 58 40 55 55 47 50 55 55 46 45
11 9 9 13 15 15 18 21 24 27 29 32 34 38 42 46 48 50 53 54 53 51 51 51 52 52 51 51 51 60 51 65 48 63 69 49 35 31 55 49 47 52 56 52 50
11 12 15 10 10 13 15 17 17 19 22 25 30 33 38 41 45 47 49 51 49 50 51 51 52 53 53 52 51 50 54 64 58 49 57 64 58 47 59 47 45 49 52 54 54
12 9 10 12 13 16 19 22 23 25 28 30 33 35 36 39 41 44 40 42 41 44 47 48 48 53 53 41 50 55 58 66 70 66 66 52 46 52 52 47 45 46 50 57 62
12 11 12 14 17 19 22 25 28 29 31 35 38 35 30 24 25 26 29 30 33 36 38 42 43 48 54 50 50 57 57 64 69 76 74 52 46 42 57 48 46 44 54 58 59
13 13 15 19 21 24 27 32 34 33 32 32 32 27 21 18 19 20 21 23 27 29 32 37 38 41 47 48 51 54 56 58 67 74 78 75 67 39 58 55 50 48 58 61 62
18 20 21 24 27 29 33 32 28 20 19 20 18 14 16 16 16 16 17 21 23 25 28 30 35 39 42 42 52 58 59 55 62 67 74 78 68 57 62 55 49 50 47 61 64
Wind_Direction
284 284 282 281 281 280 279 279 281 279 278 273 273 266 261 254 236 231 226 226 228 216 200 199 219 216 222 227 232 210 228 210 207 188 192 197 201 186 172 160 175 180 176 179 178
284 283 282 280 279 276 275 273 272 271 272 273 266 266 264 258 253 234 228 232 227 226 221 213 214 208 213 214 211 204 198 221 215 204 202 206 193 177 177 171 179 182 179 176 182
285 283 282 280 277 275 274 272 270 269 265 262 264 260 260 261 255 248 244 236 227 224 218 231 232 215 213 219 211 202 190 174 165 167 200 197 192 188 186 191 197 196 199 182 173
285 284 281 279 277 275 272 271 271 269 266 264 258 258 254 259 260 255 248 248 233 227 217 216 222 211 206 217 217 200 192 178 165 190 165 200 194 184 200 200 201 199 193 199 173
288 284 281 277 273 272 272 271 271 272 269 265 263 257 256 252 256 252 250 248 246 229 224 218 216 217 210 212 212 209 204 210 202 183 210 178 185 196 199 207 210 204 194 191 193
290 288 287 281 274 271 269 266 265 266 268 267 266 266 260 257 251 251 248 246 244 239 228 224 221 220 218 218 215 211 205 212 216 203 189 175 187 202 207 211 209 202 199 189 195
293 287 287 282 279 277 274 273 270 268 264 263 267 266 264 262 260 252 251 248 244 242 239 230 227 226 223 227 222 221 210 213 217 202 210 189 201 212 214 213 205 203 196 191 179
293 291 285 283 281 276 273 273 274 272 266 263 262 261 261 261 261 258 252 253 247 243 243 239 232 228 229 232 228 223 219 207 198 204 206 204 215 200 203 204 204 203 189 186 178
287 288 284 278 276 276 275 274 274 275 272 267 262 261 259 258 257 258 255 252 254 249 243 243 238 231 230 231 233 224 217 208 210 197 188 208 212 204 204 206 205 196 189 186 173
284 282 277 272 270 271 271 271 270 268 269 271 267 262 260 259 257 257 255 252 247 252 250 244 243 236 234 234 239 229 221 212 212 209 203 208 210 203 205 212 205 194 183 180 174
281 279 278 276 273 269 266 265 266 266 265 264 264 261 259 257 255 255 254 253 252 245 250 250 241 241 234 230 232 228 217 214 215 213 212 209 217 209 208 213 206 196 183 184 184
275 275 274 275 273 272 269 268 267 267 266 263 260 258 259 258 254 252 252 251 250 250 242 245 246 235 234 227 227 225 218 219 219 215 213 212 217 208 205 213 212 201 189 192 193
284 281 276 275 272 269 267 267 265 264 264 261 260 261 263 263 259 253 248 247 247 247 245 238 237 235 235 232 229 227 219 216 221 221 215 214 216 211 202 213 216 214 211 212 201
284 286 281 276 274 273 270 270 268 267 266 264 266 265 262 259 258 254 251 246 243 242 241 240 232 235 232 231 228 227 223 220 221 224 222 218 216 216 205 212 222 225 220 224 224
284 287 283 279 277 274 271 272 273 270 269 268 268 265 259 255 253 252 249 248 244 241 239 240 232 233 231 231 229 223 224 220 220 221 222 220 218 207 219 213 217 224 225 226 227
285 286 283 283 280 278 275 274 273 268 265 269 269 262 255 249 246 245 246 245 244 241 239 236 235 229 226 225 226 219 224 221 224 221 221 218 222 212 213 221 216 221 222 219 222
288 285 284 281 278 276 277 274 265 261 265 263 264 256 249 248 248 248 248 247 250 246 241 234 233 230 229 225 224 220 221 221 222 224 228 221 224 215 213 225 215 217 220 217 211
287 284 279 276 281 282 276 267 258 263 257 259 260 256 255 258 253 249 246 246 246 248 248 247 236 231 230 225 226 222 220 222 222 228 232 229 229 225 221 216 205 213 211 213 211
283 283 284 283 281 275 271 261 260 260 259 255 256 259 259 258 256 250 250 251 250 249 247 246 241 236 234 227 225 221 221 221 221 225 230 234 234 232 226 212 209 208 210 214 215
294 296 293 286 270 259 262 265 264 266 266 267 270 267 265 257 256 253 252 250 251 250 250 250 244 239 238 232 227 226 219 219 219 221 224 229 229 234 230 217 209 209 212 211 215
312 317 330 311 296 294 291 287 282 278 275 273 271 268 263 262 259 261 258 257 257 253 251 252 244 239 236 236 230 226 220 218 225 225 223 228 234 234 235 222 210 215 217 216 216
324 333 332 321 312 309 304 296 289 285 279 275 271 267 265 264 263 262 262 261 259 255 251 245 243 238 234 232 231 227 217 224 221 217 220 220 226 238 236 223 214 212 219 221 220
347 332 327 336 336 331 331 330 324 310 298 287 275 266 261 259 259 257 256 255 254 252 248 243 239 235 233 232 233 228 225 224 215 218 224 224 222 222 229 222 216 210 213 214 215
360 9 16 3 360 353 348 344 336 326 312 296 287 279 272 266 262 261 259 257 252 248 245 242 236 233 229 219 220 224 219 221 218 217 215 220 222 227 227 224 215 214 213 212 213
40 33 26 21 13 10 359 347 336 321 301 287 292 300 299 286 267 258 252 250 245 246 243 242 238 234 229 224 223 226 227 224 221 221 219 220 220 219 218 222 219 212 210 213 211
35 30 20 14 8 358 351 345 337 326 314 312 316 317 306 290 274 267 257 256 253 248 246 241 240 238 232 228 224 224 221 223 222 222 220 219 216 215 219 219 217 214 212 209 211
34 21 12 11 5 360 354 353 346 6 36 9 0 353 323 300 281 278 267 258 257 253 249 245 242 241 237 234 229 224 222 222 223 224 221 219 219 215 214 215 223 218 217 212 214
Height
5868 5868 5867 5867 5866 5866 5866 5866 5866 5866 5866 5866 5866 5867 5868 5868 5869 5870 5871 5873 5874 5876 5877 5878 5880 5880 5882 5884 5886 5887 5890 5890 5890 5891 5892 5893 5894 5895 5896 5897 5901 5903 5905 5907 5907
5865 5864 5864 5863 5862 5862 5862 5862 5862 5862 5863 5864 5864 5864 5865 5866 5867 5868 5870 5870 5872 5874 5876 5876 5877 5879 5881 5882 5884 5886 5888 5888 5887 5890 5891 5892 5895 5896 5898 5898 5900 5901 5903 5906 5907
5860 5860 5859 5859 5858 5858 5857 5857 5858 5858 5859 5860 5860 5861 5861 5862 5865 5866 5866 5867 5870 5872 5874 5876 5877 5879 5880 5881 5882 5885 5886 5887 5887 5889 5891 5890 5894 5895 5898 5899 5901 5902 5904 5904 5906
5856 5855 5855 5854 5854 5853 5853 5853 5853 5854 5855 5855 5856 5856 5857 5858 5862 5863 5864 5864 5867 5869 5871 5873 5875 5877 5877 5879 5881 5883 5884 5886 5887 5889 5891 5891 5891 5896 5898 5899 5901 5902 5904 5905 5905
5853 5852 5851 5850 5849 5849 5849 5849 5849 5849 5850 5850 5850 5852 5852 5855 5856 5858 5860 5861 5863 5865 5867 5869 5871 5873 5875 5876 5878 5880 5882 5885 5887 5889 5891 5892 5893 5896 5897 5899 5900 5901 5902 5905 5906
5849 5847 5846 5846 5844 5844 5844 5845 5845 5845 5846 5846 5846 5847 5848 5850 5851 5853 5855 5857 5859 5861 5863 5865 5867 5870 5873 5874 5876 5879 5882 5884 5887 5889 5891 5892 5894 5896 5897 5898 5900 5901 5902 5903 5906
5842 5842 5841 5839 5839 5838 5838 5838 5840 5840 5841 5842 5842 5842 5843 5846 5846 5848 5850 5852 5855 5857 5859 5861 5863 5868 5871 5872 5875 5878 5882 5883 5885 5888 5890 5892 5894 5894 5896 5897 5899 5900 5901 5903 5905
5836 5836 5835 5833 5832 5832 5831 5832 5833 5834 5835 5836 5837 5837 5838 5839 5841 5843 5845 5846 5849 5852 5854 5856 5860 5863 5867 5872 5873 5877 5880 5882 5883 5886 5890 5891 5894 5893 5894 5896 5898 5900 5901 5903 5904
5829 5828 5828 5827 5825 5824 5824 5825 5825 5826 5827 5828 5829 5831 5832 5833 5835 5837 5839 5841 5843 5846 5849 5851 5855 5859 5863 5866 5869 5877 5879 5881 5883 5885 5887 5889 5892 5892 5893 5895 5897 5899 5900 5901 5903
5821 5820 5820 5819 5818 5817 5817 5817 5818 5819 5819 5820 5821 5824 5824 5826 5828 5829 5831 5834 5837 5839 5842 5846 5850 5854 5858 5862 5867 5873 5875 5878 5881 5884 5885 5887 5889 5890 5892 5894 5897 5898 5900 5902 5902
5811 5810 5810 5810 5809 5808 5809 5809 5811 5812 5811 5812 5812 5813 5814 5816 5819 5821 5823 5826 5828 5833 5835 5839 5843 5851 5852 5855 5857 5863 5868 5873 5876 5878 5881 5884 5886 5888 5890 5893 5895 5897 5899 5900 5901
5802 5800 5799 5800 5799 5798 5799 5798 5799 5801 5802 5801 5802 5803 5804 5806 5809 5811 5814 5817 5819 5823 5827 5832 5838 5841 5843 5847 5850 5854 5861 5868 5869 5872 5876 5880 5883 5885 5888 5890 5892 5894 5897 5898 5900
5791 5788 5787 5788 5788 5788 5788 5788 5787 5789 5790 5791 5791 5792 5794 5795 5797 5800 5803 5805 5809 5811 5817 5822 5829 5830 5836 5840 5844 5848 5854 5859 5864 5864 5871 5874 5877 5880 5883 5887 5891 5893 5895 5897 5899
5781 5778 5777 5777 5778 5775 5776 5776 5776 5776 5777 5781 5780 5780 5782 5783 5786 5788 5790 5794 5797 5800 5805 5808 5818 5820 5827 5830 5836 5840 5848 5851 5852 5858 5866 5870 5874 5875 5879 5883 5887 5890 5893 5896 5898
5769 5767 5765 5764 5764 5763 5763 5763 5764 5764 5766 5768 5768 5767 5769 5772 5774 5776 5779 5780 5784 5787 5793 5798 5806 5810 5816 5821 5825 5835 5836 5840 5843 5848 5854 5857 5862 5872 5875 5877 5882 5887 5890 5894 5897
5757 5755 5753 5753 5752 5752 5751 5751 5752 5754 5750 5755 5754 5755 5756 5758 5760 5763 5765 5767 5771 5775 5778 5785 5790 5796 5802 5807 5812 5824 5825 5832 5835 5838 5837 5849 5855 5862 5868 5873 5880 5884 5887 5890 5894
5744 5742 5741 5740 5740 5740 5740 5740 5742 5741 5744 5744 5743 5744 5745 5747 5749 5751 5754 5756 5758 5762 5765 5771 5777 5783 5786 5794 5800 5809 5814 5820 5824 5822 5828 5844 5844 5853 5862 5868 5876 5880 5884 5886 5888
5732 5731 5731 5730 5730 5729 5729 5731 5730 5730 5731 5733 5734 5735 5735 5737 5738 5740 5742 5744 5748 5751 5753 5758 5766 5769 5773 5783 5788 5795 5802 5809 5815 5820 5827 5835 5829 5841 5851 5859 5866 5871 5877 5878 5882
5723 5721 5721 5721 5721 5721 5721 5721 5720 5722 5723 5724 5725 5725 5725 5725 5726 5729 5730 5732 5735 5739 5743 5744 5751 5754 5759 5765 5773 5783 5784 5806 5805 5813 5817 5824 5828 5836 5842 5851 5859 5865 5869 5873 5878
5715 5714 5712 5712 5713 5714 5715 5715 5715 5716 5716 5716 5715 5716 5714 5713 5716 5716 5716 5720 5722 5725 5728 5730 5739 5741 5743 5751 5760 5762 5786 5782 5785 5795 5803 5810 5817 5822 5830 5844 5852 5856 5860 5868 5874
5711 5709 5709 5709 5710 5710 5711 5710 5709 5708 5707 5706 5704 5702 5702 5701 5701 5701 5702 5703 5707 5710 5714 5718 5724 5728 5734 5737 5749 5754 5757 5763 5777 5784 5795 5802 5810 5817 5822 5837 5846 5852 5857 5863 5868
5706 5708 5707 5707 5707 5705 5704 5703 5701 5698 5696 5693 5691 5689 5687 5686 5685 5685 5685 5685 5688 5692 5696 5701 5706 5713 5720 5723 5729 5734 5741 5756 5760 5770 5781 5790 5803 5809 5812 5826 5837 5845 5850 5858 5862
5705 5705 5704 5703 5703 5701 5699 5696 5692 5688 5685 5681 5678 5676 5672 5671 5668 5666 5665 5666 5670 5674 5678 5683 5690 5698 5707 5713 5716 5719 5731 5739 5746 5760 5767 5776 5788 5795 5802 5818 5827 5834 5840 5848 5855
5705 5704 5703 5702 5700 5697 5694 5690 5686 5681 5676 5670 5665 5660 5658 5656 5654 5652 5653 5652 5655 5657 5663 5667 5674 5681 5689 5690 5690 5701 5709 5717 5730 5740 5754 5763 5780 5786 5799 5809 5817 5824 5831 5836 5840
5706 5704 5703 5701 5698 5695 5690 5685 5680 5672 5664 5657 5652 5647 5643 5642 5641 5641 5640 5641 5644 5645 5649 5653 5659 5663 5670 5677 5682 5690 5700 5709 5717 5724 5737 5758 5766 5778 5790 5799 5807 5814 5820 5826 5835
5707 5706 5703 5699 5696 5692 5686 5679 5670 5660 5654 5648 5642 5636 5634 5633 5632 5631 5631 5631 5632 5635 5638 5641 5646 5649 5656 5663 5669 5674 5684 5692 5701 5712 5726 5737 5746 5767 5776 5787 5795 5803 5809 5816 5824
5708 5705 5702 5698 5693 5689 5681 5673 5665 5657 5652 5646 5640 5634 5629 5626 5623 5623 5623 5623 5624 5626 5629 5631 5634 5637 5641 5648 5650 5657 5675 5685 5696 5704 5715 5726 5743 5754 5768 5779 5786 5796 5802 5810 5816